sat.trackr.live / text

‹ back to catalog

APRIZESAT 10

NORAD 40019 · 2014-033K

PAYLOAD ACTIVE UNKNOWN

§ Identity

Operator
Country
US
Launch date
2014-06-19
Launch site
DLS
Launch vehicle
Mass (kg)
RCS (m²)
0.13

Purposes: tech_demo

External: N2YO · Heavens-Above · Gunter

§ Orbital elements

Epoch: 2026-09-20T03:47:28.002336Z

Period
97.89 min
Inclination
97.9769°
Eccentricity
0.0077977
Mean motion
14.70968705 rev/d
Perigee alt
603.1 km
Apogee alt
712.8 km
Semi-major
7,036.1 km
B*
4.4759e-5
RAAN
28.0633°
Arg perigee
331.4503°
Mean anomaly
28.2443°
Rev number
65,621

§ Raw data

APRIZESAT 101 40019U 14033K   26263.15796299  .00000233  00000+0  44759-4 0  99922 40019  97.9769  28.0633 0077977 331.4503  28.2443 14.70968705656211

JSON: /api/v1/satellites/40019 · /tle

For live sub-satellite position, see the globe view (requires WebGL).

§ Visibility from observer

Set your observer location to see the next 7 days of passes ≥ 10°. The values pass through the URL so the page stays shareable.

No JS? Fill the form by hand. The geolocation button needs JavaScript.

§ Radio — SatNOGS DB

ModeDescriptionDownlinkUplink
GMSK GMSK 9600 400.573 MHz

1 transmitter · refreshed weekly from db.satnogs.org